This demonstration page uses our WeatherBlox Daily Observations layout. Learn more.

38.88101, -77.10428

Hourly Observations for August 1, 2020

Temp ( °F °C ) Dew Point ( °F °C ) Humidity (%) Winds ( mph kmh ) Pressure ( in mb ) Visibility ( mi km ) Precip ( " mm )
12:52 am 00:52 Cloudy 77 25 72 22.2 85 85 NNW 6 9 29.89 1012 10 16.0934 0 0
1:52 am 01:52 Cloudy 77 25 72 22.2 85 85 NNW 7 11 29.89 1012 10 16.0934 0 0
2:52 am 02:52 Mostly Cloudy 75 23.9 72 22.2 90 90 NNW 6 9 29.88 1012 10 16.0934 0 0
3:52 am 03:52 Partly Cloudy 75 23.9 72 22.2 90 90 N 6 9 29.87 1012 10 16.0934 0 0
4:52 am 04:52 Mostly Clear 76 24.4 72 22.2 88 88 N 6 9 29.87 1012 10 16.0934 0 0
5:52 am 05:52 Mostly Clear 75 23.9 72 22.2 90 90 E 5 7 29.9 1013 10 16.0934 0 0
6:52 am 06:52 Partly Cloudy 77 25 73 22.8 88 88 Calm 29.92 1013 10 16.0934 0 0
7:52 am 07:52 Mostly Cloudy 78 25.6 73 22.8 85 85 NE 5 7 29.94 1014 10 16.0934 0 0
8:52 am 08:52 Mostly Cloudy 79 26.1 72 22.2 79 79 Calm 29.96 1015 10 16.0934 0 0
9:52 am 09:52 Mostly Cloudy 81 27.2 73 22.8 77 77 ENE 5 7 29.95 1014 10 16.0934 0 0
10:52 am 10:52 Mostly Cloudy 82 27.8 72 22.2 72 72 SE 6 9 29.97 1015 10 16.0934 0 0
10:57 am 10:57 Mostly Cloudy 82 27.8 72 22.2 72 72 SE 3 6 29.97 1015 10 16.0934 0 0
11:05 am 11:05 Mostly Cloudy 82 27.8 72 22.2 72 72 SSE 5 7 29.97 1015 10 16.0934 0 0
11:12 am 11:12 Mostly Cloudy 82 27.8 72 22.2 72 72 Calm 29.97 1015 10 16.0934 0 0
11:34 am 11:34 Mostly Cloudy 84 28.9 73 22.8 70 70 S 6 9 29.97 1015 10 16.0934 0 0
11:52 am 11:52 Mostly Cloudy 84 28.9 73 22.8 70 70 S 6 9 29.97 1015 10 16.0934 0 0
12:52 pm 12:52 Mostly Cloudy 85 29.4 71 21.7 63 63 SSW 8 13 29.96 1015 10 16.0934 0 0
1:52 pm 13:52 Mostly Cloudy 87 30.6 72 22.2 61 61 S 9 15 29.94 1014 10 16.0934 0 0
2:52 pm 14:52 Mostly Cloudy 87 30.6 71 21.7 59 59 S 9 15 29.93 1014 10 16.0934 0 0
3:52 pm 15:52 Mostly Cloudy 86 30 71 21.7 61 61 S 5 7 29.91 1013 10 16.0934 0 0
4:52 pm 16:52 Mostly Cloudy 87 30.6 73 22.8 63 63 SE 9 15 29.88 1012 10 16.0934 0 0
5:52 pm 17:52 Mostly Cloudy 86 30 73 22.8 65 65 SSE 9 15 29.9 1012 10 16.0934 0 0
6:52 pm 18:52 Cloudy 85 29.4 74 23.3 70 70 SE 12 19 29.91 1013 10 16.0934 0 0
7:52 pm 19:52 Mostly Cloudy 84 28.9 74 23.3 72 72 SSE 9 15 29.92 1013 10 16.0934 0 0
8:52 pm 20:52 Mostly Cloudy 83 28.3 73 22.8 72 72 SSE 10 17 29.92 1013 10 16.0934 0 0
9:52 pm 21:52 Mostly Cloudy 82 27.8 74 23.3 77 77 S 12 19 29.93 1014 10 16.0934 0 0
10:52 pm 22:52 Mostly Cloudy 81 27.2 75 23.9 82 82 SSE 8 13 29.91 1013 10 16.0934 0 0
11:52 pm 23:52 Mostly Cloudy 80 26.7 75 23.9 85 85 SSE 8 13 29.91 1013 10 16.0934 0 0

Powered by AerisWeather